Porterville, CA

3:39 PM PST on December 14, 2019 (GMT -0800)
Porterville Municipal

Weather History for KPTV - November, 2019

Change the Weather History Date:

Saturday, November 16, 2019

  Actual Average Record
Temperature  
Mean Temperature 58 °F -  
Max Temperature 70 °F 66 °F 79 °F (1975)
Min Temperature 46 °F 41 °F 31 °F (1958)
Degree Days  
Heating Degree Days 7    
Growing Degree Days 8 (Base 50)    
Moisture  
Dew Point 47 °F    
Average Humidity 76    
Maximum Humidity 93    
Minimum Humidity 49    
Precipitation  
Precipitation 0.00 in - - ()
Sea Level Pressure  
Sea Level Pressure 30.15 in    
Wind  
Wind Speed 3 mph ()    
Max Wind Speed 9 mph    
Max Gust Speed -    
Visibility 6.0 miles    
Events      
Averages and records for this station are not official NWS values.
T = Trace of Precipitation, MM = Missing Value Source: Averaged Metar Reports

Daily Weather History Graph

Daily Weather History Graph

Search for Another Location

Airport or City:

Astronomy

Nov. 16, 2019 Rise Set
Actual Time 6:33 AM PST 4:47 PM PST
Civil Twilight 6:06 AM PST 5:15 PM PST
Nautical Twilight 5:35 AM PST 5:46 PM PST
Astronomical Twilight 5:04 AM PST 6:16 PM PST
Moon 8:28 PM PST (11/16) 10:28 AM PST (11/16)
Length of Visible Light 11h 09m
Length of Day
10h 14m
Waning Gibbous, 81% of the Moon is Illuminated
Nov 16
Waning Gibbous
Nov 19
Last Quarter
Nov 26
New
Dec 3
First Quarter
Dec 11
Full

Hourly Weather History & Observations

Time (PST) Temp. Dew Point Humidity Pressure Visibility Wind Dir Wind Speed Gust Speed Precip Events Conditions
12:56 AM 48.9 °F 46.0 °F 90% 30.17 in 5.0 mi East 3.5 mph - N/A   Partly Cloudy
1:56 AM 48.0 °F 45.0 °F 89% 30.17 in 3.0 mi ENE 4.6 mph - N/A   Clear
2:56 AM 48.0 °F 45.0 °F 89% 30.16 in 4.0 mi Calm Calm - N/A   Overcast
3:56 AM 46.9 °F 45.0 °F 93% 30.16 in 5.0 mi North - - N/A   Clear
4:56 AM 46.9 °F 45.0 °F 93% 30.16 in 4.0 mi SSE 5.8 mph - N/A   Clear
5:56 AM 46.9 °F 44.1 °F 90% 30.18 in 5.0 mi East 5.8 mph - N/A   Clear
6:56 AM 46.9 °F 44.1 °F 90% 30.19 in 4.0 mi ESE 4.6 mph - N/A   Clear
7:56 AM 48.0 °F 45.0 °F 89% 30.20 in 4.0 mi Calm Calm - N/A   Clear
8:56 AM 54.0 °F 46.9 °F 77% 30.20 in 5.0 mi Calm Calm - N/A   Haze
9:56 AM 61.0 °F 48.9 °F 64% 30.19 in 5.0 mi Calm Calm - N/A   Haze
10:56 AM 66.0 °F 51.1 °F 59% 30.17 in 6.0 mi Variable 3.5 mph - N/A   Haze
11:56 AM 66.0 °F 50.0 °F 56% 30.15 in 7.0 mi Variable 3.5 mph - N/A   Clear
12:56 PM 68.0 °F 51.1 °F 55% 30.12 in 9.0 mi North 8.1 mph - N/A   Clear
1:56 PM 70.0 °F 50.0 °F 49% 30.10 in 9.0 mi Calm Calm - N/A   Clear
2:56 PM 70.0 °F 50.0 °F 49% 30.09 in 9.0 mi Variable 3.5 mph - N/A   Clear
3:56 PM 69.1 °F 50.0 °F 51% 30.10 in 8.0 mi WNW 4.6 mph - N/A   Clear
4:56 PM 64.0 °F 48.9 °F 58% 30.11 in 7.0 mi WNW 4.6 mph - N/A   Clear
5:56 PM 59.0 °F 51.1 °F 75% 30.12 in 7.0 mi Calm Calm - N/A   Clear
6:56 PM 54.0 °F 46.9 °F 77% 30.12 in 7.0 mi SE 5.8 mph - N/A   Clear
7:56 PM 53.1 °F 48.0 °F 83% 30.13 in 6.0 mi Calm Calm - N/A   Haze
8:56 PM 52.0 °F 46.9 °F 83% 30.14 in 6.0 mi North - - N/A   Haze
9:56 PM 50.0 °F 46.0 °F 86% 30.14 in 6.0 mi East 6.9 mph - N/A   Clear
10:56 PM 52.0 °F 46.9 °F 83% 30.12 in 6.0 mi ESE 9.2 mph - N/A   Haze
11:56 PM 48.9 °F 45.0 °F 86% 30.14 in 6.0 mi Calm Calm - N/A   Clear